This is the latest recevied weather packets stored in our database for station/object KY4LEX. If no packets are shown the sender has not sent any weather packets the latest 10 day(s).
| Time | Temp. | Humidity | Pressure | Rain* | Wind** | Luminosity | Snow |
|---|---|---|---|---|---|---|---|
| 1777787877 | 3.33° C | 81% | 1024.4 hPa | 0 mm | - | 0 W/m² | - |
| 1777787574 | 3.33° C | 80% | 1024.3 hPa | 0 mm | - | 0 W/m² | - |
| 1777787270 | 3.33° C | 79% | 1024.5 hPa | 0 mm | - | 0 W/m² | - |
| 1777786966 | 3.89° C | 79% | 1024.5 hPa | 0 mm | - | 0 W/m² | - |
| 1777786664 | 3.89° C | 77% | 1024.8 hPa | 0 mm | - | 0 W/m² | - |
| 1777786363 | 3.89° C | 77% | 1024.5 hPa | 0 mm | - | 0 W/m² | - |
| 1777786058 | 3.89° C | 76% | 1024.7 hPa | 0 mm | - | 0 W/m² | - |
| 1777785755 | 4.44° C | 75% | 1024.7 hPa | 0 mm | - | 0 W/m² | - |
| 1777785450 | 4.44° C | 75% | 1024.4 hPa | 0 mm | - | 0 W/m² | - |
| 1777785148 | 4.44° C | 74% | 1024.4 hPa | 0 mm | - | 0 W/m² | - |
| 1777784844 | 5° C | 73% | 1024.5 hPa | 0 mm | - | 0 W/m² | - |
| 1777784541 | 5° C | 72% | 1024.7 hPa | 0 mm | - | 0 W/m² | - |
| 1777784239 | 5° C | 71% | 1024.5 hPa | 0 mm | - | 0 W/m² | - |
| 1777783936 | 5° C | 70% | 1024.5 hPa | 0 mm | - | 0 W/m² | - |
| 1777783632 | 5.56° C | 69% | 1024.5 hPa | 0 mm | - | 0 W/m² | - |
| 1777783330 | 5.56° C | 69% | 1024.6 hPa | 0 mm | - | 0 W/m² | - |
| 1777783026 | 5.56° C | 69% | 1024.5 hPa | 0 mm | - | 0 W/m² | - |
| 1777782724 | 5.56° C | 69% | 1024.4 hPa | 0 mm | - | 0 W/m² | - |
| 1777782419 | 6.11° C | 72% | 1024.4 hPa | 0 mm | - | 0 W/m² | - |
| 1777782116 | 6.11° C | 70% | 1024.4 hPa | 0 mm | - | 0 W/m² | - |
| 1777781812 | 5.56° C | 70% | 1024.3 hPa | 0 mm | - | 0 W/m² | - |
| 1777781510 | 6.11° C | 71% | 1024.2 hPa | 0 mm | - | 0 W/m² | - |
| 1777781208 | 6.11° C | 71% | 1024.2 hPa | 0 mm | - | 0 W/m² | - |
| 1777780905 | 6.11° C | 73% | 1024.2 hPa | 0 mm | - | 0 W/m² | - |
| 1777780601 | 6.11° C | 71% | 1024.2 hPa | 0 mm | - | 0 W/m² | - |
* Rain latest hour (hover to see other rain measurements)
** Current wind speed in m/s (hover to see current wind gust speed)